Tracking 28529 objects as of 25-Feb-2024
HD Live streaming from Space Station
objects crossing your sky now

COSMOS 1375 DEB

Track COSMOS 1375 DEB now!
10-day predictions


NORAD ID: 16209
Int'l Code: 1982-055L
Perigee: 994.4 km
Apogee: 1,009.3 km
Inclination: 65.8 °
Period: 105.0 minutes
Semi major axis: 7372 km
RCS: 0.5415 m2 (medium)
Launch date: June 6, 1982
Source: Commonwealth of Independent States (former USSR) (CIS)
Launch site: PLESETSK MISSILE AND SPACE COMPLEX (PKMTR)

Note: This is SATELLITE DEBRIS
Your satellite tracking list
Your tracking list is empty




NASA's NSSDC Master Catalog

Two Line Element Set (TLE):
1 16209U 82055L   24055.78785833 -.00000054  00000-0  28628-4 0  9993
2 16209  65.8355 183.1239 0010086  41.9097 113.9023 13.71351973924761
Source of the keplerian elements: AFSPC